Christchurch, New Zealand

11:35 AM NZDT on November 23, 2017 (GMT +1300)
Christchurch International

Weather History for NZCH - November, 2013

Change the Weather History Date:

Sunday, November 17, 2013

  Actual Average Record
Temperature  
Mean Temperature 56 °F -  
Max Temperature 62 °F 64 °F 71 °F (1998)
Min Temperature 51 °F 46 °F 39 °F (2002)
Degree Days  
Heating Degree Days 8    
Growing Degree Days 6 (Base 50)    
Moisture  
Dew Point 51 °F    
Average Humidity 80    
Maximum Humidity 94    
Minimum Humidity 63    
Precipitation  
Precipitation 0.00 in - - ()
Sea Level Pressure  
Sea Level Pressure 30.04 in    
Wind  
Wind Speed 9 mph ()    
Max Wind Speed 18 mph    
Max Gust Speed -    
Visibility 6.2 miles    
Events      
Averages and records for this station are not official NWS values.
T = Trace of Precipitation, MM = Missing Value Source: Averaged Metar Reports

Daily Weather History Graph

Daily Weather History Graph

Search for Another Location

Airport or City:

Trip Planner

Search our weather history database for the weather conditions in past years. The results will help you decide how hot, cold, wet, or windy it might be!

Date:

Astronomy

Nov. 17, 2013 Rise Set
Actual Time 5:53 AM NZDT 8:36 PM NZDT
Civil Twilight 5:20 AM NZDT 9:09 PM NZDT
Nautical Twilight 4:39 AM NZDT 9:51 PM NZDT
Astronomical Twilight 3:51 AM NZDT 10:39 PM NZDT
Moon 8:07 PM NZDT (11/17) 5:30 AM NZDT (11/17)
Length of Visible Light 15h 48m
Length of Day
14h 42m
Full, 100% of the Moon is Illuminated
Nov 17
Full
Nov 18
Full
Nov 26
Last Quarter
Dec 3
New
Dec 10
First Quarter

Hourly Weather History & Observations

Time (NZDT) Temp. Dew Point Humidity Pressure Visibility Wind Dir Wind Speed Gust Speed Precip Events Conditions
12:00 AM 57.2 °F 51.8 °F 82% 30.01 in 6.2 mi SW 13.8 mph - N/A   Mostly Cloudy
12:30 AM 57.2 °F 50.0 °F 77% 30.01 in 6.2 mi SW 12.7 mph - N/A   Overcast
1:00 AM 57.2 °F 50.0 °F 77% 30.01 in 6.2 mi SSW 12.7 mph - N/A   Overcast
1:30 AM 55.4 °F 50.0 °F 82% 30.01 in 6.2 mi South 6.9 mph - N/A   Partly Cloudy
2:00 AM 53.6 °F 50.0 °F 88% 30.01 in 6.2 mi WSW 4.6 mph - N/A   Unknown
2:30 AM 53.6 °F 50.0 °F 88% 30.01 in 6.2 mi West 5.8 mph - N/A   Unknown
3:00 AM 53.6 °F 50.0 °F 88% 30.01 in 6.2 mi West 5.8 mph - N/A   Partly Cloudy
3:30 AM 53.6 °F 50.0 °F 88% 30.01 in 6.2 mi West 4.6 mph - N/A   Overcast
4:00 AM 53.6 °F 50.0 °F 88% 30.01 in 6.2 mi West 5.8 mph - N/A   Mostly Cloudy
4:30 AM 53.6 °F 50.0 °F 88% 30.04 in 6.2 mi West 5.8 mph - N/A   Scattered Clouds
5:00 AM 51.8 °F 50.0 °F 94% 30.04 in 6.2 mi West 4.6 mph - N/A   Mostly Cloudy
5:30 AM 51.8 °F 50.0 °F 94% 30.04 in 6.2 mi West 4.6 mph - N/A   Mostly Cloudy
6:00 AM 53.6 °F 50.0 °F 88% 30.04 in 6.2 mi WSW 4.6 mph - N/A   Overcast
6:30 AM 53.6 °F 50.0 °F 88% 30.04 in 6.2 mi WSW 4.6 mph - N/A   Mostly Cloudy
7:00 AM 53.6 °F 50.0 °F 88% 30.04 in 6.2 mi WSW 3.5 mph - N/A   Overcast
7:30 AM 55.4 °F 51.8 °F 88% 30.04 in 6.2 mi SW 2.3 mph - N/A   Overcast
8:00 AM 55.4 °F 51.8 °F 88% 30.06 in 6.2 mi SW 1.2 mph - N/A   Overcast
8:30 AM 57.2 °F 51.8 °F 82% 30.06 in 6.2 mi NNE 1.2 mph - N/A   Mostly Cloudy
9:00 AM 57.2 °F 51.8 °F 82% 30.06 in 6.2 mi NNE 3.5 mph - N/A   Overcast
9:30 AM 59.0 °F 51.8 °F 77% 30.06 in 6.2 mi NE 5.8 mph - N/A   Mostly Cloudy
10:00 AM 60.8 °F 51.8 °F 72% 30.06 in 6.2 mi ENE 6.9 mph - N/A   Mostly Cloudy
10:30 AM 60.8 °F 51.8 °F 72% 30.06 in 6.2 mi NE 8.1 mph - N/A   Mostly Cloudy
11:00 AM 62.6 °F 51.8 °F 68% 30.06 in 6.2 mi NE 11.5 mph - N/A   Scattered Clouds
11:30 AM 60.8 °F 50.0 °F 68% 30.06 in 6.2 mi NE 13.8 mph - N/A   Mostly Cloudy
12:00 PM 62.6 °F 50.0 °F 63% 30.06 in 6.2 mi ENE 11.5 mph - N/A   Mostly Cloudy
12:30 PM 62.6 °F 50.0 °F 63% 30.06 in 6.2 mi East 13.8 mph - N/A   Scattered Clouds
1:00 PM 62.6 °F 50.0 °F 63% 30.06 in 6.2 mi ENE 13.8 mph - N/A   Scattered Clouds
1:30 PM 62.6 °F 50.0 °F 63% 30.04 in 6.2 mi East 15.0 mph - N/A   Mostly Cloudy
2:00 PM 62.6 °F 50.0 °F 63% 30.04 in 6.2 mi East 13.8 mph - N/A   Mostly Cloudy
2:30 PM 60.8 °F 50.0 °F 68% 30.04 in 6.2 mi ENE 15.0 mph - N/A   Mostly Cloudy
3:00 PM 59.0 °F 50.0 °F 72% 30.04 in 6.2 mi East 16.1 mph - N/A   Overcast
3:30 PM 59.0 °F 50.0 °F 72% 30.04 in 6.2 mi ENE 15.0 mph - N/A   Mostly Cloudy
4:00 PM 60.8 °F 51.8 °F 72% 30.04 in 6.2 mi East 16.1 mph - N/A   Mostly Cloudy
4:30 PM 59.0 °F 51.8 °F 77% 30.04 in 6.2 mi ENE 16.1 mph - N/A   Mostly Cloudy
5:00 PM 59.0 °F 51.8 °F 77% 30.04 in 6.2 mi East 18.4 mph - N/A   Mostly Cloudy
5:30 PM 59.0 °F 50.0 °F 72% 30.04 in 6.2 mi East 13.8 mph - N/A   Overcast
6:00 PM 59.0 °F 51.8 °F 77% 30.04 in 6.2 mi East 16.1 mph - N/A   Mostly Cloudy
6:30 PM 57.2 °F 50.0 °F 77% 30.04 in 6.2 mi ENE 16.1 mph - N/A   Overcast
7:00 PM 57.2 °F 51.8 °F 82% 30.04 in 6.2 mi ENE 16.1 mph - N/A   Overcast
7:30 PM 57.2 °F 51.8 °F 82% 30.04 in 6.2 mi ENE 15.0 mph - N/A   Overcast
8:00 PM 55.4 °F 51.8 °F 88% 30.06 in 6.2 mi ENE 15.0 mph - N/A   Overcast
8:30 PM 55.4 °F 51.8 °F 88% 30.06 in 6.2 mi East 13.8 mph - N/A   Overcast
9:00 PM 55.4 °F 51.8 °F 88% 30.06 in 6.2 mi ENE 12.7 mph - N/A   Overcast
9:30 PM 55.4 °F 51.8 °F 88% 30.06 in 6.2 mi ENE 12.7 mph - N/A   Overcast
10:00 PM 55.4 °F 51.8 °F 88% 30.06 in 6.2 mi ENE 12.7 mph - N/A   Overcast
10:30 PM 55.4 °F 51.8 °F 88% 30.06 in 6.2 mi ENE 11.5 mph - N/A   Mostly Cloudy
11:00 PM 55.4 °F 51.8 °F 88% 30.06 in 6.2 mi East 11.5 mph - N/A   Overcast
11:30 PM 55.4 °F 51.8 °F 88% 30.06 in 6.2 mi ENE 11.5 mph - N/A   Overcast